[Iaude] MPEC A149: 2024 AX3 [a=1.60,e=0.38,i=4.7,H=27.6]
    mpec at marsden.cfa.harvard.edu 
    mpec at marsden.cfa.harvard.edu
       
    Fri Jan 12 22:37:13 EST 2024
    
    
  
M.P.E.C. 2024-A149                             Issued 2024 January 13, 03:35 UT
     The Minor Planet Electronic Circulars contain information on unusual
         minor planets, routine data on comets and natural satellites,
         and occasional editorial announcements.  They are published
    on behalf of Division F of the International Astronomical Union by the
          Minor Planet Center, Smithsonian Astrophysical Observatory,
                          Cambridge, MA 02138, U.S.A.
			  
             Prepared using the Tamkin Foundation Computer Network
                              MPC at CFA.HARVARD.EDU
            URL https://www.minorplanetcenter.net/    ISSN 1523-6714
                                    2024 AX3                                    
Observations:
     K24A03X*1C2024 01 11.38212810 26 14.867+13 56 34.62         19.90GVEA149G96
     K24A03X 1C2024 01 11.38729010 26 24.608+13 57 26.06         19.78GVEA149G96
     K24A03X 1C2024 01 11.39758210 26 43.984+13 59 07.94         20.07GVEA149G96
     K24A03X KC2024 01 11.42056710 27 26.700+14 02 51.30         20.18GVEA149V06
     K24A03X KC2024 01 11.42107510 27 27.650+14 02 56.30         19.85GVEA149V06
     K24A03X KC2024 01 11.42158410 27 28.570+14 03 01.10         20.52GVEA149V06
     K24A03X KC2024 01 11.47004910 28 57.968+14 10 39.29         20.35GVEA149V06
     K24A03X KC2024 01 11.47048910 28 58.753+14 10 43.64         20.15GVEA149V06
     K24A03X KC2024 01 11.47093010 28 59.588+14 10 48.32         20.33GVEA149V06
     K24A03X KC2024 01 11.47137010 29 00.434+14 10 52.18         20.32GVEA149V06
     K24A03X KC2024 01 12.09245910 48 39.44 +15 36 13.7          20.2 GVEA149L01
     K24A03X KC2024 01 12.09393910 48 41.78 +15 36 24.9          20.5 GVEA149L01
     K24A03X KC2024 01 12.09541910 48 44.15 +15 36 35.9          20.1 GVEA149L01
     K24A03X KC2024 01 12.09689910 48 46.51 +15 36 47.6          19.9 GVEA149L01
     K24A03X KC2024 01 12.09838010 48 48.83 +15 36 58.8          20.1 GVEA149L01
Observer details:
G96 Mt. Lemmon Survey.  Observer J. K. Hogan.  Measurers T. Beuden, V. F.
    Carvajal, D. Fay, J. B. Fazekas, D. C. Fuls, A. R. Gibbs, A. D. Grauer, H.
    Groeller, J. K. Hogan, R. A. Kowalski, S. M. Larson, G. J. Leonard, D.
    Rankin, R. L. Seaman, F. C. Shelly, K. W. Wierzchos.  1.5-m reflector +
    10K CCD.
L01 Visnjan Observatory, Tican.  Observer K. Korlevic.  1.0-m f/2.9 reflector
    + CCD.
V06 Catalina Sky Survey-Kuiper.  Observer K. W. Wierzchos.  Measurers T.
    Beuden, V. F. Carvajal, D. Fay, J. B. Fazekas, D. C. Fuls, A. R. Gibbs, A.
    D. Grauer, H. Groeller, J. K. Hogan, R. A. Kowalski, S. M. Larson, G. J.
    Leonard, D. Rankin, R. L. Seaman, F. C. Shelly, K. W. Wierzchos.  1.55-m
    reflector + 1K CCD.
Orbital elements:
2024 AX3                                                 Earth MOID = 0.0104 AU
Epoch 2023 Sept. 13.0 TT = JDT 2460200.5                Bell                    
M 303.25248              (2000.0)            P               Q                  
n   0.48557605     Peri.  356.47652     -0.28931284     -0.95413372             
a   1.6031145      Node   110.32866     +0.88024043     -0.29678265             
e   0.3795327      Incl.    4.70929     +0.37613146     -0.03935605             
P   2.03           H   27.67          G   0.15           U   9                  
Residuals in seconds of arc
240111 G96  0.6-  0.2-    240111 V06  0.4-  0.4-    240112 L01  0.3+  0.2-
240111 G96  0.2-  0.0     240111 V06  0.5-  0.6-    240112 L01  0.0   0.1-
240111 G96  1.0+  0.4+    240111 V06  0.8-  0.3-    240112 L01  0.1+  0.3-
240111 V06  0.1-  0.4-    240111 V06  0.5-  0.3+    240112 L01  0.1+  0.3+
240111 V06  0.0   0.3-    240111 V06  0.1+  0.1+    240112 L01  0.5-  0.4+
Ephemeris:
2024 AX3                 a,e,i = 1.60, 0.38, 5                   q = 0.9947
Date    TT    R. A. (2000) Decl.     Delta      r    Elong.  Phase     V
2023 12 14    02 42 09.9 -20 06 16   0.07980 1.0287   121.7    54.5    24.2
...
2023 12 29    03 27 34.0 -20 07 58   0.03466 1.0001   118.0    60.2    22.5
...
2024 01 06    06 06 15.8 -10 39 21   0.01418 0.9948   143.8    35.7    19.9
...
2024 01 12    10 45 52.7 +15 28 36   0.01727 0.9955   133.5    45.8    20.6
2024 01 13    11 12 20.5 +17 16 02   0.01963 0.9959   128.8    50.3    21.0
2024 01 14    11 33 09.6 +18 30 57   0.02219 0.9966   125.3    53.7    21.4
...
2024 01 20    12 36 18.8 +21 27 04   0.03937 1.0025   117.1    60.9    22.8
...
2024 01 28    13 03 00.7 +22 27 38   0.06348 1.0164   118.4    58.5    23.8
...
2024 02 12    13 10 35.9 +23 22 56   0.1086  1.0592   129.3    46.1    24.7
M. P. C. Staff               (C) Copyright 2024 MPC           M.P.E.C. 2024-A149
    
    
More information about the Iaude
mailing list